Weather History for KPHF - March, 2014

Change the Weather History Date:

Thursday, March 20, 2014

  Actual Average Record
Temperature  
Mean Temperature 58 °F -  
Max Temperature 69 °F 59 °F 76 °F (1952)
Min Temperature 46 °F 39 °F 24 °F (1967)
Degree Days  
Heating Degree Days 8    
Growing Degree Days 8 (Base 50)    
Moisture  
Dew Point 36 °F    
Average Humidity 55    
Maximum Humidity 86    
Minimum Humidity 19    
Precipitation  
Precipitation 0.00 in - - ()
Sea Level Pressure  
Sea Level Pressure 29.92 in    
Wind  
Wind Speed 12 mph (West)    
Max Wind Speed 17 mph    
Max Gust Speed 25 mph    
Visibility 9 miles    
Events      
Averages and records for this station are not official NWS values.
T = Trace of Precipitation, MM = Missing Value Source: NWS Daily Summary

Daily Weather History Graph

Daily Weather History Graph

Search for Another Location

Airport or City:

Trip Planner

Search our weather history database for the weather conditions in past years. The results will help you decide how hot, cold, wet, or windy it might be!

Date:

Astronomy

Mar. 20, 2014 Rise Set
Actual Time 7:09 AM EDT 7:17 PM EDT
Civil Twilight 6:43 AM EDT 7:43 PM EDT
Nautical Twilight 6:13 AM EDT 8:14 PM EDT
Astronomical Twilight 5:42 AM EDT 8:44 PM EDT
Moon 11:29 PM EDT (3/20) 9:19 AM EDT (3/20)
Length of Visible Light 13h 00m
Length of Day
12h 08m
Waning Gibbous, 84% of the Moon is Illuminated
Mar 20
Waning Gibbous
Mar 23
Last Quarter
Mar 30
New
Apr 7
First Quarter
Apr 15
Full

Hourly Weather History & Observations

Time (EDT) Temp. Windchill Dew Point Humidity Pressure Visibility Wind Dir Wind Speed Gust Speed Precip Events Conditions
12:21 AM 50.0 °F - 44.6 °F 82% 29.91 in 10.0 mi WSW 17.3 mph 23.0 mph N/A   Overcast
12:54 AM 50.0 °F - 45.0 °F 83% 29.91 in 10.0 mi WSW 13.8 mph - N/A   Overcast
1:54 AM 50.0 °F - 45.0 °F 83% 29.89 in 10.0 mi WSW 12.7 mph - N/A   Overcast
2:02 AM 50.0 °F - 44.6 °F 82% 29.89 in 10.0 mi WSW 15.0 mph - N/A   Overcast
2:54 AM 51.1 °F - 45.0 °F 80% 29.88 in 10.0 mi WSW 12.7 mph - N/A   Overcast
3:54 AM 51.1 °F - 45.0 °F 80% 29.87 in 9.0 mi WSW 10.4 mph - N/A   Overcast
4:54 AM 50.0 °F - 44.1 °F 80% 29.88 in 9.0 mi WSW 10.4 mph - N/A   Mostly Cloudy
5:03 AM 50.0 °F - 44.6 °F 82% 29.88 in 9.0 mi WSW 11.5 mph - N/A   Scattered Clouds
5:54 AM 48.9 °F - 43.0 °F 80% 29.89 in 8.0 mi WSW 6.9 mph - N/A   Partly Cloudy
6:54 AM 46.9 °F - 43.0 °F 86% 29.91 in 6.0 mi WSW 6.9 mph - N/A   Clear
7:54 AM 48.0 °F - 43.0 °F 83% 29.92 in 5.0 mi WSW 6.9 mph - N/A   Haze
8:54 AM 50.0 °F - 44.1 °F 80% 29.93 in 6.0 mi WSW 6.9 mph - N/A   Haze
9:54 AM 55.0 °F - 44.1 °F 67% 29.95 in 10.0 mi West 8.1 mph - N/A   Clear
10:54 AM 59.0 °F - 39.9 °F 49% 29.95 in 10.0 mi WNW 13.8 mph 18.4 mph N/A   Clear
11:54 AM 63.0 °F - 36.0 °F 37% 29.94 in 10.0 mi West 15.0 mph 23.0 mph N/A   Clear
12:54 PM 64.9 °F - 32.0 °F 29% 29.93 in 10.0 mi West 15.0 mph - N/A   Clear
1:54 PM 66.9 °F - 34.0 °F 30% 29.90 in 10.0 mi WNW 13.8 mph 19.6 mph N/A   Clear
2:54 PM 69.1 °F - 28.0 °F 22% 29.89 in 10.0 mi WNW 17.3 mph 25.3 mph N/A   Clear
3:54 PM 68.0 °F - 26.1 °F 21% 29.88 in 10.0 mi NW 13.8 mph 21.9 mph N/A   Clear
4:54 PM 68.0 °F - 28.0 °F 22% 29.88 in 10.0 mi WNW 12.7 mph 19.6 mph N/A   Clear
5:54 PM 66.9 °F - 24.1 °F 20% 29.89 in 10.0 mi WNW 17.3 mph 23.0 mph N/A   Clear
6:54 PM 64.0 °F - 21.0 °F 19% 29.91 in 10.0 mi WNW 9.2 mph - N/A   Clear
7:54 PM 60.1 °F - 23.0 °F 24% 29.93 in 10.0 mi WNW 5.8 mph - N/A   Clear
8:54 PM 54.0 °F - 24.1 °F 31% 29.95 in 10.0 mi Calm Calm - N/A   Clear
9:54 PM 48.0 °F - 32.0 °F 54% 29.97 in 10.0 mi Calm Calm - N/A   Clear
10:54 PM 46.0 °F 43.1 °F 28.0 °F 50% 30.00 in 10.0 mi NNW 5.8 mph - N/A   Clear
11:54 PM 50.0 °F - 24.1 °F 36% 30.04 in 10.0 mi North 5.8 mph - N/A   Clear